Regional Weather Roundup
Issued by NWS Sterling, VA

Home | Current Version | Previous Version | Text Only | Print | Product List | Glossary On
Versions: 1 2 3 4 5 6 7 8 9 10 11 12 13 14 15 16 17 18 19 20 21 22 23 24 25 26 27 28 29 30 31 32 33 34 35 36 37 38 39 40 41 42 43 44 45 46 47 48 49 50
000
ASUS41 KLWX 200910
RWRLWX

REGIONAL WEATHER ROUNDUP
NATIONAL WEATHER SERVICE BALTIMORE MD/WASHINGTON DC
400 AM EST MON NOV 20 2017

Note: "FAIR" indicates few or no clouds below 12,000 feet
with no significant weather and/or obstructions to visibility.
 TC=TEMPERATURE CELSIUS

 * =Non NWS site. Station does not report precipitation (e.g. rain,
    snow, etc.), thunder, or fog.

DCZ001-MDZ009-015-VAZ040>042-051-053>054-201000-
WASHINGTON METRO

CITY           SKY/WX    TMP DP  RH WIND       PRES   REMARKS
WASHINGTON NAT MOCLDY    42  21  43 NW14G20   30.07R
DULLES         PTCLDY    38  20  48 NW21G30   30.06S WCI  28
ANDREWS AFB    CLOUDY    41  21  44 NW12      30.04R
FT BELVOIR     PTCLDY    41  19  41 NW12G24   30.07R
COLLEGE PARK*  CLOUDY    40  24  52 W8        30.05S
LEESBURG*      PTCLDY    39  27  60 NW20G32   30.06R
MANASSAS*      PTCLDY    36  22  56 NW6       30.08R
GAITHERSBURG*  CLOUDY    37  22  54 NW10      30.04S

$$

MDZ006>007-011-014-201000-
BALTIMORE METRO

CITY           SKY/WX    TMP DP  RH WIND       PRES   REMARKS
BWI AIRPORT    MOCLDY    40  24  53 W14G21    30.04S
MARTIN STATE   CLEAR     39  23  52 W14G20    30.05S
FORT MEADE*    CLOUDY    39  23  52 W17G25    30.07S

$$

MDZ012-015-019>023-201000-
MARYLAND EASTERN SHORE

CITY           SKY/WX    TMP DP  RH WIND       PRES   REMARKS
OCEAN CITY     CLEAR     41  24  51 NW12      30.04R
SALISBURY      PTCLDY    42  25  50 NW13      30.04S
CAMBRIDGE*     PTCLDY    41  25  52 NW12      30.04S
EASTON*        MOCLDY    42  25  50 NW10      30.07S

$$

MDZ017>025-201000-
SOUTHERN MARYLAND

CITY           SKY/WX    TMP DP  RH WIND       PRES   REMARKS
PATUXENT RIVER NOT AVBL
ST INIGOES     NOT AVBL
LEONARDTOWN*   PTCLDY    36  28  75 W6        30.07R

$$

MDZ003>005-201000-
NORTH CENTRAL MARYLAND

CITY           SKY/WX    TMP DP  RH WIND       PRES   REMARKS
FREDERICK*     CLOUDY    39  19  45 W12       30.09R
HAGERSTOWN APT CLOUDY    37  20  50 W14       30.04R WCI  28
WESTMINSTER*   CLEAR     36  19  51 W17G24    30.00S WCI  25

$$

MDZ501>502-201000-
WESTERN MARYLAND

CITY           SKY/WX    TMP DP  RH WIND       PRES   REMARKS
OAKLAND*       CLOUDY    23  18  80 W13G23    29.97R WCI  11
CUMBERLAND*    PTCLDY    36  21  55 W15G24    30.11R WCI  26

$$

VAZ025>031-201000-
SHENANDOAH VALLEY

CITY           SKY/WX    TMP DP  RH WIND       PRES   REMARKS
WINCHESTER*    PTCLDY    34  19  55 W23G30    30.07R WCI  22
FRONT ROYAL*   CLEAR     37  23  56 W10G18    30.05R
LURAY*         CLEAR     36  21  55 SW8       30.06S
NEW MARKET*    CLEAR     33  18  53 W3        30.06R
STAUNTON*      CLEAR     24  19  80 CALM      30.08S
WAYNESBORO*    CLEAR     32  22  66 W6        30.05S

$$

WVZ021-048>050-054>055-201000-
EASTERN WEST VIRGINIA PANHANDLE

CITY           SKY/WX    TMP DP  RH WIND       PRES   REMARKS
MARTINSBURG    CLOUDY    37  20  50 W13       30.05S WCI  29
PETERSBURG*    CLEAR     34  20  55 W21G31    30.07S WCI  23

$$

VAZ036>039-050-201000-
CENTRAL FOOTHILLS

CITY           SKY/WX    TMP DP  RH WIND       PRES   REMARKS
CHARLOTTESVILL CLEAR     36  20  52 CALM      30.07R
CULPEPER*      CLEAR     31  22  71 CALM      30.08S
ORANGE*        CLEAR     34  21  60 W7        30.07S
GORDONSVILLE*  CLEAR     33  23  67 CALM      30.07S
WARRENTON*     NOT AVBL

$$

VAZ055>057-201000-
NORTH AND CENTRAL PIEDMONT

CITY           SKY/WX    TMP DP  RH WIND       PRES   REMARKS
FREDERICKSBRG* CLEAR     32  28  85 SW3       30.07S
STAFFORD*      CLEAR     32  23  69 NW5       30.11R

$$

NCZ024-NYZ072-PAZ021-071-VAZ022-071-201000-
OTHER REGIONAL OBSERVATIONS

CITY           SKY/WX    TMP DP  RH WIND       PRES   REMARKS
NEW YORK CITY  PTCLDY    38  25  59 MISG      29.92R
PHILADELPHIA   MOCLDY    40  23  50 W22G30    29.99R
PITTSBURGH     CLOUDY    31  23  72 W9G18     30.07S WCI  23
ROANOKE        CLEAR     36  21  54 NW9       30.12S WCI  29
RICHMOND       CLEAR     36  25  64 W7        30.08R
RALEIGH        CLEAR     30  26  85 CALM      30.14S

$$

ANZ530>537-201000-
MARINE OBSERVATIONS

STATION/POSITION TIME  TEMP    WIND        PRES
                       AIR SEA DIR/SP/G
                 (UTC) (F)     (DEG/KT/KT) (MB)
THOMAS PT LIGHT  0900   42 53  310/ 17/ 20   N/A
BALT KEY BRIDGE  0842   41     280/ 18/ 23 1017.1R
COVE POINT       0842   43     330/  9/ 16 1018.3R
LEWISETTA        0842   40 52  290/  9/ 11 1018.0R
SOLOMONS ISLAND  0842   43 54  330/  5/  9 1017.4R
PINEY POINT      0836          300/ 10/ 12   N/A

$$




USA.gov is the U.S. government's official web portal to all federal, state and local government web resources and services.